Location: Unspecified
(0.0000°N, 0.0000°E)
Time: 11:06:46
(UTC+00:00)

Vanguard 3 - Pass Details

Date: 24 September 2023
Orbit: 507 x 3241 km, 33.3° (Epoch: 06 December)

Event Time Altitude Azimuth Distance (km) Brightness Sun altitude
Rises 13:50:30 0° 225° (SW) 7,038 12.2 60.4°
Reaches altitude 10° 13:55:29 10° 219° (SW) 6,137 12.0 59.1°
Maximum altitude 14:14:22 49° 149° (SSE) 3,576 10.8 54.4°
Drops below altitude 10° 14:28:45 10° 79° (E) 4,839 10.8 50.8°
Sets 14:32:04 0° 73° (ENE) 5,521 11.0 50.0°
